Weather History for Cedar Rapids, IA

Change the Weather History Date:

Thursday, March 7, 2013

  Actual Average Record
Temperature  
Mean Temperature 14 °F 33 °F  
Max Temperature 27 °F 42 °F 78 °F (2000)
Min Temperature 1 °F 23 °F -8 °F (1960)
Degree Days  
Heating Degree Days 51 32  
Month to date heating degree days 310 236  
Since 1 July heating degree days 5422 5519  
Cooling Degree Days 0 0  
Month to date cooling degree days 0 0  
Year to date cooling degree days 0 0  
Moisture  
Dew Point 11 °F    
Average Humidity 88    
Maximum Humidity 100    
Minimum Humidity 75    
Precipitation  
Precipitation 0.00 in 0.06 in 0.96 in (2009)
Month to date precipitation 0.24 0.42  
Year to date precipitation 2.19 2.56  
Sea Level Pressure  
Sea Level Pressure 30.37 in    
Wind  
Wind Speed 6 mph (NE)    
Max Wind Speed 13 mph    
Max Gust Speed 15 mph    
Visibility 4 miles    
Events Fog    
T = Trace of Precipitation, MM = Missing Value Source: NWS Daily Summary

Daily Weather History Graph

Daily Weather History Graph

Search for Another Location

Airport:

Trip Planner

Search our weather history database for the weather conditions in past years. The results will help you decide how hot, cold, wet, or windy it might be!

Date:

Astronomy

Mar. 07, 2013 Rise Set
Actual Time 6:31 AM CST 6:04 PM CST
Civil Twilight 6:03 AM CST 6:32 PM CST
Nautical Twilight 5:31 AM CST 7:04 PM CST
Astronomical Twilight 4:59 AM CST 7:37 PM CST
Moon 3:35 AM CST (3/7) 1:49 PM CST (3/7)
Length of Visible Light 12h 28m
Length of Day
11h 32m
Waning Crescent, 20% of the Moon is Illuminated
Mar 7
Waning Crescent
Mar 11
New
Mar 19
First Quarter
Mar 27
Full
Apr 2
Last Quarter

Hourly Weather History & Observations

Time (CST) Temp. Windchill Dew Point Humidity Pressure Visibility Wind Dir Wind Speed Gust Speed Precip Events Conditions
12:09 AM 10.4 °F 0.8 °F 8.6 °F 92% 30.32 in 1.2 mi NNW 5.8 mph - N/A   Clear
12:52 AM 8.1 °F -3.2 °F 7.0 °F 95% 30.39 in 1.0 mi NNW 6.9 mph - N/A   Clear
1:06 AM 8.6 °F -2.6 °F 6.8 °F 92% 30.34 in 2.0 mi NNW 6.9 mph - N/A   Clear
1:21 AM 6.8 °F -0.1 °F 6.8 °F 100% 30.35 in 3.0 mi NW 3.5 mph - N/A   Scattered Clouds
1:32 AM 8.6 °F -1.3 °F 6.8 °F 92% 30.35 in 3.0 mi NW 5.8 mph - N/A   Mostly Cloudy
1:44 AM 6.8 °F -4.8 °F 5.0 °F 92% 30.36 in 2.5 mi NW 6.9 mph - N/A   Mostly Cloudy
1:52 AM 7.0 °F -4.5 °F 5.0 °F 92% 30.41 in 1.8 mi NNW 6.9 mph - N/A   Mostly Cloudy
2:01 AM 6.8 °F -4.8 °F 5.0 °F 92% 30.35 in 1.8 mi NNW 6.9 mph - N/A   Scattered Clouds
2:08 AM 6.8 °F -3.5 °F 5.0 °F 92% 30.35 in 2.5 mi NNW 5.8 mph - N/A   Partly Cloudy
2:24 AM 6.8 °F -3.5 °F 5.0 °F 92% 30.34 in 2.5 mi NNW 5.8 mph - N/A   Mostly Cloudy
2:31 AM 6.8 °F -3.5 °F 5.0 °F 92% 30.34 in 2.5 mi NNW 5.8 mph - N/A   Mostly Cloudy
2:45 AM 6.8 °F -4.8 °F 3.2 °F 85% 30.34 in 3.0 mi NNW 6.9 mph - N/A   Overcast
2:52 AM 7.0 °F -3.3 °F 5.0 °F 92% 30.39 in 2.0 mi NNW 5.8 mph - N/A   Overcast
3:41 AM 5.0 °F - 1.4 °F 85% 30.33 in 0.8 mi Calm Calm - N/A   Mist
3:49 AM 5.0 °F - 3.2 °F 92% 30.33 in 0.2 mi Calm Calm - N/A Fog Light Freezing Fog
3:52 AM 6.1 °F - 5.0 °F 95% 30.38 in 0.2 mi Calm Calm - N/A Fog Light Freezing Fog
4:52 AM 3.0 °F - 1.0 °F 91% 30.39 in 0.8 mi Calm Calm - N/A Fog Patches of Fog
5:52 AM 1.9 °F -5.6 °F -0.0 °F 91% 30.40 in 0.8 mi North 3.5 mph - N/A Fog Patches of Fog
6:52 AM 3.2 °F - -0.4 °F 85% 30.35 in 1.8 mi Calm Calm - N/A   Clear
7:52 AM 6.1 °F - 5.0 °F 95% 30.43 in 1.5 mi Calm Calm - N/A   Clear
8:52 AM 12.2 °F - 10.4 °F 92% 30.38 in 3.0 mi Calm Calm - N/A   Clear
9:52 AM 17.1 °F 11.7 °F 15.1 °F 92% 30.43 in 3.0 mi SE 3.5 mph - N/A   Clear
10:52 AM 21.9 °F 12.5 °F 18.0 °F 85% 30.43 in 6.0 mi South 8.1 mph - N/A   Clear
11:52 AM 24.1 °F 15.2 °F 19.0 °F 81% 30.41 in 8.0 mi SSE 8.1 mph - 0.01 in   Clear
12:52 PM 25.0 °F 17.1 °F 19.9 °F 81% 30.42 in 8.0 mi South 6.9 mph - N/A   Partly Cloudy
1:52 PM 27.0 °F 19.5 °F 21.0 °F 78% 30.38 in 7.0 mi ESE 6.9 mph - N/A   Clear
2:52 PM 26.1 °F 16.2 °F 19.9 °F 78% 30.38 in 8.0 mi ESE 10.4 mph - 0.00 in   Clear
3:52 PM 26.1 °F 16.8 °F 21.0 °F 81% 30.38 in 6.0 mi ESE 9.2 mph - N/A   Haze
4:52 PM 27.0 °F 18.7 °F 21.0 °F 78% 30.38 in 7.0 mi East 8.1 mph - N/A   Clear
5:52 PM 24.1 °F 16.0 °F 19.0 °F 81% 30.37 in 6.0 mi East 6.9 mph - N/A   Haze
6:52 PM 21.9 °F 13.4 °F 19.0 °F 89% 30.38 in 7.0 mi East 6.9 mph - N/A   Clear
7:52 PM 21.0 °F 12.4 °F 18.0 °F 88% 30.38 in 7.0 mi ESE 6.9 mph - N/A   Clear
8:52 PM 21.0 °F 11.4 °F 18.0 °F 88% 30.37 in 8.0 mi East 8.1 mph - N/A   Clear
9:52 PM 19.0 °F 10.0 °F 16.0 °F 88% 30.38 in 8.0 mi ESE 6.9 mph - N/A   Clear
10:52 PM 19.0 °F 8.2 °F 17.1 °F 92% 30.38 in 5.0 mi ESE 9.2 mph - N/A   Clear
11:52 PM 19.4 °F 8.6 °F 17.6 °F 93% 30.33 in 5.0 mi ESE 9.2 mph - N/A   Clear